| time (UTC) | temp F | wind direction | speed MPH | gust MPH | rain 1hr in | rain 24hr in | rain mn in | humidity % | barometer mb |
| 20260905233121 | 72 | 27 | 0.0 | 0.0 | 0.00 | 0.00 | 0.00 | 79 | 1012.6 |
| 20260905232658 | 72 | 27 | 0.0 | 0.0 | 0.00 | 0.00 | 0.00 | 78 | 1012.4 |
| 20260905232124 | 72 | 27 | 0.0 | 0.0 | 0.00 | 0.00 | 0.00 | 77 | 1012.4 |
| 20260905231700 | 73 | 27 | 0.0 | 0.0 | 0.00 | 0.00 | 0.00 | 76 | 1012.4 |
| 20260905231148 | 73 | 27 | 0.0 | 0.0 | 0.00 | 0.00 | 0.00 | 76 | 1012.3 |
| 20260905230621 | 73 | 27 | 0.0 | 0.0 | 0.00 | 0.00 | 0.00 | 74 | 1012.2 |
| 20260905230117 | 73 | 27 | 0.0 | 0.0 | 0.00 | 0.00 | 0.00 | 74 | 1012.3 |
| 20260905225629 | 74 | 27 | 0.0 | 0.0 | 0.00 | 0.00 | 0.00 | 75 | 1012.2 |
| 20260905225122 | 74 | 27 | 0.0 | 0.0 | 0.00 | 0.00 | 0.00 | 74 | 1012.2 |
| 20260905224617 | 74 | 27 | 0.0 | 0.0 | 0.00 | 0.00 | 0.00 | 73 | 1012.2 |
| 20260905224134 | 74 | 27 | 0.0 | 4.0 | 0.00 | 0.00 | 0.00 | 73 | 1012.2 |
| 20260905223628 | 75 | 27 | 0.0 | 4.0 | 0.00 | 0.00 | 0.00 | 71 | 1012.2 |
| 20260905223124 | 75 | 336 | 0.0 | 9.0 | 0.00 | 0.00 | 0.00 | 69 | 1012.2 |
| 20260905222620 | 75 | 343 | 3.0 | 9.0 | 0.00 | 0.00 | 0.00 | 69 | 1012.1 |
| 20260905222135 | 76 | 10 | 3.0 | 7.0 | 0.00 | 0.00 | 0.00 | 70 | 1012.0 |
| 20260905221628 | 76 | 21 | 1.0 | 10.0 | 0.00 | 0.00 | 0.00 | 70 | 1011.8 |
| 20260905221123 | 76 | 37 | 3.0 | 10.0 | 0.00 | 0.00 | 0.00 | 69 | 1011.8 |
| 20260905220636 | 77 | 22 | 1.0 | 11.0 | 0.00 | 0.00 | 0.00 | 69 | 1011.7 |
| 20260905220123 | 77 | 360 | 6.0 | 11.0 | 0.00 | 0.00 | 0.00 | 67 | 1011.7 |
| 20260905215621 | 77 | 10 | 8.0 | 13.0 | 0.00 | 0.00 | 0.00 | 66 | 1011.6 |
| 20260905215135 | 77 | 347 | 5.0 | 9.0 | 0.00 | 0.00 | 0.00 | 68 | 1011.6 |
| 20260905214625 | 77 | 16 | 5.0 | 10.0 | 0.00 | 0.00 | 0.00 | 69 | 1011.7 |
| 20260905214121 | 77 | 21 | 3.0 | 11.0 | 0.00 | 0.00 | 0.00 | 68 | 1011.7 |
| 20260905213634 | 77 | 10 | 5.0 | 16.0 | 0.00 | 0.00 | 0.00 | 68 | 1011.6 |
| 20260905213122 | 77 | 33 | 5.0 | 16.0 | 0.00 | 0.00 | 0.00 | 68 | 1011.7 |
| 20260905212637 | 76 | 10 | 8.0 | 12.0 | 0.00 | 0.00 | 0.00 | 69 | 1011.7 |
| 20260905212144 | 76 | 10 | 0.0 | 3.0 | 0.00 | 0.00 | 0.00 | 70 | 1011.6 |
| 20260905211638 | 76 | 5 | 1.0 | 4.0 | 0.00 | 0.00 | 0.00 | 73 | 1011.7 |
| 20260905211135 | 76 | 16 | 1.0 | 4.0 | 0.00 | 0.00 | 0.00 | 74 | 1011.7 |
| 20260905210620 | 76 | 46 | 0.0 | 5.0 | 0.00 | 0.00 | 0.00 | 74 | 1011.7 |
| 20260905210125 | 76 | 28 | 2.0 | 5.0 | 0.00 | 0.00 | 0.00 | 73 | 1011.6 |
| 20260905205621 | 77 | 29 | 1.0 | 6.0 | 0.00 | 0.00 | 0.00 | 73 | 1011.7 |
| 20260905205134 | 77 | 33 | 1.0 | 5.0 | 0.00 | 0.00 | 0.00 | 72 | 1011.7 |
| 20260905204642 | 78 | 49 | 3.0 | 9.0 | 0.00 | 0.00 | 0.00 | 70 | 1011.7 |
| 20260905204117 | 78 | 41 | 4.0 | 9.0 | 0.00 | 0.00 | 0.00 | 70 | 1011.7 |
| 20260905203624 | 77 | 46 | 2.0 | 4.0 | 0.00 | 0.00 | 0.00 | 73 | 1011.7 |
| 20260905203139 | 76 | 65 | 0.0 | 3.0 | 0.00 | 0.00 | 0.00 | 73 | 1011.7 |
| 20260905202626 | 76 | 31 | 0.0 | 4.0 | 0.00 | 0.00 | 0.00 | 75 | 1011.7 |
| 20260905202120 | 76 | 54 | 2.0 | 8.0 | 0.00 | 0.00 | 0.00 | 73 | 1011.9 |
| 20260905201634 | 76 | 26 | 3.0 | 10.0 | 0.00 | 0.00 | 0.00 | 73 | 1011.9 |
| 20260905201129 | 76 | 47 | 4.0 | 10.0 | 0.00 | 0.00 | 0.00 | 72 | 1011.9 |
| 20260905200623 | 77 | 66 | 3.0 | 9.0 | 0.00 | 0.00 | 0.00 | 72 | 1011.9 |
| 20260905200139 | 77 | 17 | 1.0 | 9.0 | 0.00 | 0.00 | 0.00 | 73 | 1011.9 |
| 20260905195627 | 76 | 16 | 4.0 | 9.0 | 0.00 | 0.00 | 0.00 | 72 | 1012.0 |
| 20260905195119 | 76 | 52 | 0.0 | 3.0 | 0.00 | 0.00 | 0.00 | 74 | 1011.9 |
| 20260905194634 | 76 | 52 | 0.0 | 4.0 | 0.00 | 0.00 | 0.00 | 74 | 1011.9 |
| 20260905194124 | 76 | 41 | 1.0 | 11.0 | 0.00 | 0.00 | 0.00 | 73 | 1011.9 |
| 20260905193638 | 77 | 58 | 2.0 | 11.0 | 0.00 | 0.00 | 0.00 | 73 | 1011.9 |
| 20260905193146 | 77 | 39 | 3.0 | 9.0 | 0.00 | 0.00 | 0.00 | 73 | 1011.9 |
| 20260905192618 | 76 | 43 | 1.0 | 6.0 | 0.00 | 0.00 | 0.00 | 73 | 1012.0 |
| 20260905192134 | 76 | 62 | 3.0 | 6.0 | 0.00 | 0.00 | 0.00 | 71 | 1012.1 |
| 20260905191622 | 77 | 40 | 0.0 | 6.0 | 0.00 | 0.00 | 0.00 | 72 | 1012.2 |
| 20260905191137 | 76 | 49 | 3.0 | 6.0 | 0.00 | 0.00 | 0.00 | 74 | 1012.2 |
| 20260905190624 | 76 | 65 | 1.0 | 5.0 | 0.00 | 0.00 | 0.00 | 75 | 1012.1 |
| 20260905190138 | 75 | 21 | 3.0 | 5.0 | 0.00 | 0.00 | 0.00 | 77 | 1012.1 |
| 20260905185626 | 75 | 43 | 3.0 | 8.0 | 0.00 | 0.00 | 0.00 | 76 | 1012.2 |
| 20260905185120 | 75 | 33 | 3.0 | 10.0 | 0.00 | 0.00 | 0.00 | 75 | 1012.3 |
| 20260905184634 | 76 | 41 | 4.0 | 14.0 | 0.00 | 0.00 | 0.00 | 74 | 1012.4 |
| 20260905184124 | 77 | 47 | 9.0 | 14.0 | 0.00 | 0.00 | 0.00 | 71 | 1012.4 |
| 20260905183636 | 78 | 350 | 6.0 | 10.0 | 0.00 | 0.00 | 0.00 | 74 | 1012.5 |
| 20260905183142 | 76 | 29 | 4.0 | 12.0 | 0.00 | 0.00 | 0.00 | 75 | 1012.5 |
| 20260905182631 | 76 | 72 | 5.0 | 9.0 | 0.00 | 0.00 | 0.00 | 76 | 1012.6 |
| 20260905182125 | 75 | 29 | 4.0 | 12.0 | 0.00 | 0.00 | 0.00 | 77 | 1012.6 |
| 20260905181616 | 75 | 49 | 3.0 | 12.0 | 0.00 | 0.00 | 0.00 | 74 | 1012.5 |
| 20260905181132 | 76 | 59 | 5.0 | 11.0 | 0.00 | 0.00 | 0.00 | 74 | 1012.6 |
| 20260905180645 | 76 | 61 | 5.0 | 11.0 | 0.00 | 0.00 | 0.00 | 75 | 1012.7 |
| 20260905180138 | 76 | 32 | 6.0 | 11.0 | 0.00 | 0.00 | 0.00 | 77 | 1012.8 |
| 20260905175626 | 76 | 10 | 5.0 | 10.0 | 0.00 | 0.00 | 0.00 | 78 | 1012.8 |
| 20260905175137 | 75 | 54 | 4.0 | 8.0 | 0.00 | 0.00 | 0.00 | 76 | 1012.8 |
| 20260905174625 | 75 | 34 | 4.0 | 8.0 | 0.00 | 0.00 | 0.00 | 78 | 1012.9 |
| 20260905174122 | 75 | 66 | 2.0 | 6.0 | 0.00 | 0.00 | 0.00 | 77 | 1012.8 |
| 20260905173637 | 75 | 69 | 3.0 | 9.0 | 0.00 | 0.00 | 0.00 | 77 | 1012.8 |
| 20260905173125 | 74 | 56 | 4.0 | 9.0 | 0.00 | 0.00 | 0.00 | 78 | 1013.0 |
| 20260905172621 | 74 | 35 | 4.0 | 8.0 | 0.00 | 0.00 | 0.00 | 78 | 1013.1 |
| 20260905172135 | 74 | 65 | 3.0 | 10.0 | 0.00 | 0.00 | 0.00 | 79 | 1013.1 |
| 20260905171623 | 73 | 10 | 6.0 | 10.0 | 0.00 | 0.00 | 0.00 | 78 | 1013.1 |
| 20260905171158 | 73 | 21 | 5.0 | 13.0 | 0.00 | 0.00 | 0.00 | 80 | 1013.1 |
| 20260905170624 | 73 | 10 | 9.0 | 13.0 | 0.00 | 0.00 | 0.00 | 79 | 1013.2 |
| 20260905170119 | 73 | 360 | 5.0 | 10.0 | 0.00 | 0.00 | 0.00 | 80 | 1013.2 |
| 20260905165634 | 73 | 22 | 2.0 | 10.0 | 0.00 | 0.00 | 0.00 | 79 | 1013.3 |
| 20260905165120 | 74 | 29 | 3.0 | 13.0 | 0.00 | 0.00 | 0.00 | 79 | 1013.3 |
| 20260905164635 | 74 | 20 | 10.0 | 13.0 | 0.00 | 0.00 | 0.00 | 80 | 1013.3 |
| 20260905164124 | 74 | 60 | 2.0 | 11.0 | 0.00 | 0.00 | 0.00 | 80 | 1013.2 |
| 20260905163619 | 73 | 360 | 7.0 | 11.0 | 0.00 | 0.00 | 0.00 | 81 | 1013.2 |
| 20260905163134 | 72 | 47 | 2.0 | 6.0 | 0.00 | 0.00 | 0.00 | 81 | 1013.3 |
| 20260905162623 | 71 | 45 | 0.0 | 2.0 | 0.00 | 0.00 | 0.00 | 81 | 1013.4 |
| 20260905162117 | 71 | 45 | 0.0 | 6.0 | 0.00 | 0.00 | 0.00 | 81 | 1013.6 |
| 20260905161628 | 71 | 30 | 2.0 | 8.0 | 0.00 | 0.00 | 0.00 | 81 | 1013.7 |
| 20260905161119 | 71 | 26 | 3.0 | 8.0 | 0.00 | 0.00 | 0.00 | 81 | 1013.8 |
| 20260905160628 | 71 | 40 | 2.0 | 8.0 | 0.00 | 0.00 | 0.00 | 81 | 1013.8 |
| 20260905160142 | 72 | 36 | 4.0 | 13.0 | 0.00 | 0.00 | 0.00 | 81 | 1013.9 |
| 20260905155630 | 72 | 22 | 4.0 | 13.0 | 0.00 | 0.00 | 0.00 | 81 | 1013.9 |
| 20260905155125 | 72 | 54 | 3.0 | 10.0 | 0.00 | 0.00 | 0.00 | 81 | 1013.9 |
| 20260905154659 | 72 | 41 | 6.0 | 10.0 | 0.00 | 0.00 | 0.00 | 81 | 1013.8 |
| 20260905154127 | 72 | 22 | 3.0 | 7.0 | 0.00 | 0.00 | 0.00 | 81 | 1013.8 |
| 20260905153620 | 72 | 52 | 3.0 | 6.0 | 0.00 | 0.00 | 0.00 | 81 | 1013.9 |
| 20260905153135 | 72 | 47 | 2.0 | 6.0 | 0.00 | 0.00 | 0.00 | 81 | 1014.1 |
| 20260905152620 | 71 | 33 | 2.0 | 8.0 | 0.00 | 0.00 | 0.00 | 81 | 1013.9 |
| 20260905152134 | 71 | 23 | 4.0 | 8.0 | 0.00 | 0.00 | 0.00 | 81 | 1013.9 |
| 20260905151621 | 72 | 28 | 3.0 | 11.0 | 0.00 | 0.00 | 0.00 | 81 | 1014.0 |
| 20260905151136 | 73 | 5 | 6.0 | 11.0 | 0.00 | 0.00 | 0.00 | 80 | 1013.9 |
| 20260905150622 | 74 | 29 | 1.0 | 4.0 | 0.00 | 0.00 | 0.00 | 80 | 1013.9 |
| 20260905150138 | 74 | 44 | 1.0 | 1.0 | 0.00 | 0.00 | 0.00 | 79 | 1013.8 |
| 20260905145627 | 74 | 40 | 0.0 | 0.0 | 0.00 | 0.00 | 0.00 | 79 | 1013.8 |
| 20260905145121 | 74 | 41 | 0.0 | 2.0 | 0.00 | 0.00 | 0.00 | 79 | 1013.9 |
| 20260905144636 | 74 | 41 | 0.0 | 2.0 | 0.00 | 0.00 | 0.00 | 79 | 1013.8 |
| 20260905144122 | 74 | 40 | 0.0 | 0.0 | 0.00 | 0.00 | 0.00 | 80 | 1013.8 |
| 20260905143634 | 73 | 40 | 0.0 | 0.0 | 0.00 | 0.00 | 0.00 | 80 | 1013.8 |
| 20260905143140 | 73 | 40 | 0.0 | 1.0 | 0.00 | 0.00 | 0.00 | 80 | 1013.7 |
| 20260905142629 | 73 | 41 | 0.0 | 2.0 | 0.00 | 0.00 | 0.00 | 81 | 1013.5 |
| 20260905142120 | 73 | 18 | 0.0 | 1.0 | 0.00 | 0.00 | 0.00 | 81 | 1013.4 |
| 20260905141635 | 72 | 18 | 0.0 | 2.0 | 0.00 | 0.00 | 0.00 | 81 | 1013.4 |
| 20260905141122 | 72 | 14 | 0.0 | 4.0 | 0.00 | 0.00 | 0.00 | 81 | 1013.4 |
| 20260905140637 | 72 | 27 | 0.0 | 4.0 | 0.00 | 0.00 | 0.00 | 81 | 1013.3 |
| 20260905140123 | 72 | 27 | 0.0 | 4.0 | 0.00 | 0.00 | 0.00 | 81 | 1013.4 |
| 20260905135635 | 72 | 22 | 0.0 | 5.0 | 0.00 | 0.00 | 0.00 | 81 | 1013.4 |
| 20260905135120 | 72 | 22 | 0.0 | 5.0 | 0.00 | 0.00 | 0.00 | 81 | 1013.3 |
| 20260905134654 | 72 | 36 | 1.0 | 5.0 | 0.00 | 0.00 | 0.00 | 81 | 1013.2 |
| 20260905134128 | 72 | 23 | 1.0 | 6.0 | 0.00 | 0.00 | 0.00 | 81 | 1013.3 |
| 20260905133641 | 72 | 16 | 4.0 | 6.0 | 0.00 | 0.00 | 0.00 | 81 | 1013.3 |
| 20260905133155 | 71 | 24 | 2.0 | 5.0 | 0.00 | 0.00 | 0.00 | 81 | 1013.4 |
| 20260905132641 | 71 | 26 | 0.0 | 5.0 | 0.00 | 0.00 | 0.00 | 81 | 1013.3 |
| 20260905132126 | 71 | 18 | 2.0 | 5.0 | 0.00 | 0.00 | 0.00 | 82 | 1013.3 |
| 20260905131622 | 71 | 19 | 1.0 | 3.0 | 0.00 | 0.00 | 0.00 | 82 | 1013.3 |
| 20260905131156 | 71 | 23 | 0.0 | 4.0 | 0.00 | 0.00 | 0.00 | 81 | 1013.2 |
| 20260905130622 | 71 | 27 | 0.0 | 8.0 | 0.00 | 0.00 | 0.00 | 82 | 1013.2 |
| 20260905130158 | 71 | 31 | 2.0 | 8.0 | 0.00 | 0.00 | 0.00 | 82 | 1013.2 |
| 20260905125625 | 70 | 24 | 4.0 | 8.0 | 0.00 | 0.00 | 0.00 | 82 | 1013.3 |
| 20260905125158 | 70 | 42 | 0.0 | 0.0 | 0.00 | 0.00 | 0.00 | 82 | 1013.3 |
| 20260905124625 | 70 | 58 | 0.0 | 0.0 | 0.00 | 0.00 | 0.00 | 82 | 1013.3 |
| 20260905124119 | 70 | 37 | 0.0 | 0.0 | 0.00 | 0.00 | 0.00 | 82 | 1013.5 |
| 20260905123628 | 69 | 37 | 0.0 | 0.0 | 0.00 | 0.00 | 0.00 | 82 | 1013.6 |
| 20260905123142 | 69 | 37 | 0.0 | 0.0 | 0.00 | 0.00 | 0.00 | 82 | 1013.4 |
| 20260905122630 | 69 | 34 | 0.0 | 0.0 | 0.00 | 0.00 | 0.00 | 82 | 1013.4 |
| 20260905122122 | 69 | 30 | 0.0 | 0.0 | 0.00 | 0.00 | 0.00 | 82 | 1013.5 |
| 20260905121636 | 69 | 30 | 0.0 | 0.0 | 0.00 | 0.00 | 0.00 | 82 | 1013.4 |
| 20260905121131 | 69 | 33 | 0.0 | 0.0 | 0.00 | 0.00 | 0.00 | 82 | 1013.1 |
| 20260905120637 | 68 | 33 | 0.0 | 0.0 | 0.00 | 0.00 | 0.00 | 83 | 1013.0 |
| 20260905120124 | 68 | 33 | 0.0 | 0.0 | 0.00 | 0.00 | 0.00 | 83 | 1013.0 |
| 20260905115700 | 68 | 33 | 0.0 | 0.0 | 0.00 | 0.00 | 0.00 | 83 | 1013.1 |
| 20260905115125 | 68 | 32 | 0.0 | 0.0 | 0.00 | 0.00 | 0.00 | 83 | 1013.0 |
| 20260905114639 | 67 | 320 | 0.0 | 0.0 | 0.00 | 0.00 | 0.00 | 83 | 1013.0 |
| 20260905114149 | 67 | 317 | 0.0 | 0.0 | 0.00 | 0.00 | 0.00 | 83 | 1013.0 |
| 20260905113702 | 67 | 317 | 0.0 | 0.0 | 0.00 | 0.00 | 0.00 | 83 | 1013.0 |
| 20260905113123 | 67 | 317 | 0.0 | 0.0 | 0.00 | 0.00 | 0.00 | 83 | 1013.0 |
| 20260905112638 | 67 | 315 | 0.0 | 0.0 | 0.00 | 0.00 | 0.00 | 83 | 1013.0 |
| 20260905112144 | 67 | 315 | 0.0 | 0.0 | 0.00 | 0.00 | 0.00 | 83 | 1013.0 |
| 20260905111638 | 67 | 315 | 0.0 | 0.0 | 0.00 | 0.00 | 0.00 | 83 | 1013.0 |
| 20260905111127 | 67 | 315 | 0.0 | 0.0 | 0.00 | 0.00 | 0.00 | 83 | 1013.1 |
| 20260905110636 | 67 | 315 | 0.0 | 0.0 | 0.00 | 0.00 | 0.00 | 83 | 1013.1 |
| 20260905110121 | 67 | 31 | 0.0 | 0.0 | 0.00 | 0.00 | 0.00 | 83 | 1012.9 |
| 20260905105635 | 67 | 31 | 0.0 | 0.0 | 0.00 | 0.00 | 0.00 | 83 | 1012.9 |
| 20260905105127 | 67 | 31 | 0.0 | 0.0 | 0.00 | 0.00 | 0.00 | 83 | 1012.9 |
| 20260905104622 | 67 | 31 | 0.0 | 0.0 | 0.00 | 0.00 | 0.00 | 83 | 1012.8 |
| 20260905104138 | 67 | 31 | 0.0 | 0.0 | 0.00 | 0.00 | 0.00 | 83 | 1012.7 |
| 20260905103624 | 67 | 29 | 0.0 | 0.0 | 0.00 | 0.00 | 0.00 | 83 | 1012.6 |
| 20260905103158 | 67 | 30 | 0.0 | 0.0 | 0.00 | 0.00 | 0.00 | 83 | 1012.7 |
| 20260905102647 | 66 | 30 | 0.0 | 0.0 | 0.00 | 0.00 | 0.00 | 83 | 1012.6 |
| 20260905102139 | 66 | 31 | 0.0 | 0.0 | 0.00 | 0.00 | 0.00 | 83 | 1012.7 |
| 20260905101626 | 66 | 20 | 0.0 | 0.0 | 0.00 | 0.00 | 0.00 | 83 | 1012.7 |
| 20260905101121 | 66 | 20 | 0.0 | 0.0 | 0.00 | 0.00 | 0.00 | 83 | 1012.7 |
| 20260905100635 | 66 | 20 | 0.0 | 0.0 | 0.00 | 0.00 | 0.00 | 83 | 1012.7 |
| 20260905100123 | 66 | 21 | 0.0 | 0.0 | 0.00 | 0.00 | 0.00 | 83 | 1012.6 |
| 20260905095640 | 66 | 20 | 0.0 | 0.0 | 0.00 | 0.00 | 0.00 | 83 | 1012.5 |
| 20260905095146 | 66 | 19 | 0.0 | 0.0 | 0.00 | 0.00 | 0.00 | 83 | 1012.6 |
| 20260905094638 | 67 | 19 | 0.0 | 0.0 | 0.00 | 0.00 | 0.00 | 83 | 1012.5 |
| 20260905094145 | 67 | 19 | 0.0 | 0.0 | 0.00 | 0.00 | 0.00 | 83 | 1012.4 |
| 20260905093639 | 67 | 18 | 0.0 | 0.0 | 0.00 | 0.00 | 0.00 | 83 | 1012.4 |
| 20260905093142 | 67 | 18 | 0.0 | 0.0 | 0.00 | 0.00 | 0.00 | 83 | 1012.3 |
| 20260905092617 | 67 | 18 | 0.0 | 0.0 | 0.00 | 0.00 | 0.00 | 83 | 1012.2 |
| 20260905092129 | 67 | 18 | 0.0 | 0.0 | 0.00 | 0.00 | 0.00 | 83 | 1012.2 |
| 20260905091622 | 67 | 18 | 0.0 | 0.0 | 0.00 | 0.00 | 0.00 | 83 | 1012.2 |
| 20260905091136 | 67 | 18 | 0.0 | 0.0 | 0.00 | 0.00 | 0.00 | 83 | 1012.3 |
| 20260905090627 | 67 | 10 | 0.0 | 0.0 | 0.00 | 0.00 | 0.00 | 83 | 1012.4 |
| 20260905090122 | 67 | 335 | 0.0 | 0.0 | 0.00 | 0.00 | 0.00 | 83 | 1012.4 |
| 20260905085658 | 67 | 335 | 0.0 | 0.0 | 0.00 | 0.00 | 0.00 | 83 | 1012.4 |
| 20260905085122 | 68 | 335 | 0.0 | 0.0 | 0.00 | 0.00 | 0.00 | 83 | 1012.4 |
| 20260905084636 | 68 | 335 | 0.0 | 0.0 | 0.00 | 0.00 | 0.00 | 83 | 1012.4 |
| 20260905084124 | 68 | 335 | 0.0 | 0.0 | 0.00 | 0.00 | 0.00 | 83 | 1012.4 |
| 20260905083638 | 68 | 335 | 0.0 | 0.0 | 0.00 | 0.00 | 0.00 | 84 | 1012.3 |
| 20260905083126 | 68 | 335 | 0.0 | 0.0 | 0.00 | 0.00 | 0.00 | 84 | 1012.3 |
| 20260905082620 | 68 | 335 | 0.0 | 0.0 | 0.00 | 0.00 | 0.00 | 84 | 1012.3 |
| 20260905082134 | 68 | 252 | 0.0 | 0.0 | 0.00 | 0.00 | 0.00 | 84 | 1012.3 |
| 20260905081621 | 68 | 250 | 0.0 | 0.0 | 0.00 | 0.00 | 0.00 | 84 | 1012.4 |
| 20260905081137 | 68 | 250 | 0.0 | 0.0 | 0.00 | 0.00 | 0.00 | 84 | 1012.5 |
| 20260905080623 | 68 | 250 | 0.0 | 0.0 | 0.00 | 0.00 | 0.00 | 84 | 1012.5 |
| 20260905080137 | 68 | 250 | 0.0 | 0.0 | 0.00 | 0.00 | 0.00 | 84 | 1012.4 |
| 20260905075626 | 68 | 250 | 0.0 | 0.0 | 0.00 | 0.00 | 0.00 | 84 | 1012.5 |
| 20260905075120 | 68 | 250 | 0.0 | 0.0 | 0.00 | 0.00 | 0.00 | 84 | 1012.6 |
| 20260905074635 | 68 | 250 | 0.0 | 0.0 | 0.00 | 0.00 | 0.00 | 84 | 1012.6 |
| 20260905074123 | 68 | 250 | 0.0 | 0.0 | 0.00 | 0.00 | 0.00 | 84 | 1012.6 |
| 20260905073635 | 68 | 250 | 0.0 | 0.0 | 0.00 | 0.00 | 0.00 | 84 | 1012.7 |
| 20260905073142 | 68 | 169 | 0.0 | 0.0 | 0.00 | 0.00 | 0.00 | 84 | 1012.7 |
| 20260905072645 | 68 | 170 | 0.0 | 0.0 | 0.00 | 0.00 | 0.00 | 83 | 1012.7 |
| 20260905072137 | 68 | 170 | 0.0 | 0.0 | 0.00 | 0.00 | 0.00 | 83 | 1012.8 |
| 20260905071622 | 68 | 170 | 0.0 | 0.0 | 0.00 | 0.00 | 0.00 | 83 | 1012.9 |
| 20260905071159 | 69 | 170 | 0.0 | 0.0 | 0.00 | 0.00 | 0.00 | 84 | 1012.9 |
| 20260905070624 | 68 | 170 | 0.0 | 0.0 | 0.00 | 0.00 | 0.00 | 83 | 1013.0 |
| 20260905070159 | 68 | 170 | 0.0 | 0.0 | 0.00 | 0.00 | 0.00 | 83 | 1013.0 |
| 20260905065626 | 68 | 170 | 0.0 | 0.0 | 0.00 | 0.00 | 0.00 | 83 | 1013.1 |
| 20260905065119 | 68 | 170 | 0.0 | 0.0 | 0.00 | 0.00 | 0.00 | 83 | 1013.2 |
| 20260905064634 | 68 | 170 | 0.0 | 0.0 | 0.00 | 0.00 | 0.00 | 83 | 1013.2 |
| 20260905064125 | 68 | 170 | 0.0 | 0.0 | 0.00 | 0.00 | 0.00 | 83 | 1013.3 |
| 20260905063639 | 68 | 170 | 0.0 | 0.0 | 0.00 | 0.00 | 0.00 | 83 | 1013.4 |
| 20260905063125 | 68 | 170 | 0.0 | 0.0 | 0.00 | 0.00 | 0.00 | 83 | 1013.3 |
| 20260905062619 | 68 | 170 | 0.0 | 0.0 | 0.00 | 0.00 | 0.00 | 83 | 1013.4 |
| 20260905062133 | 68 | 170 | 0.0 | 0.0 | 0.00 | 0.00 | 0.00 | 83 | 1013.5 |
| 20260905061622 | 68 | 170 | 0.0 | 0.0 | 0.00 | 0.00 | 0.00 | 83 | 1013.5 |
| 20260905061157 | 68 | 170 | 0.0 | 0.0 | 0.00 | 0.00 | 0.00 | 83 | 1013.6 |
| 20260905060623 | 68 | 170 | 0.0 | 0.0 | 0.00 | 0.00 | 0.00 | 83 | 1013.6 |
| 20260905060138 | 68 | 170 | 0.0 | 0.0 | 0.00 | 0.00 | 0.00 | 83 | 1013.7 |
| 20260905055625 | 68 | 170 | 0.0 | 0.0 | 0.00 | 0.00 | 0.00 | 83 | 1013.8 |
| 20260905055139 | 69 | 170 | 0.0 | 0.0 | 0.00 | 0.00 | 0.00 | 83 | 1013.8 |
| 20260905054625 | 68 | 170 | 0.0 | 0.0 | 0.00 | 0.00 | 0.00 | 83 | 1013.9 |
| 20260905054157 | 68 | 169 | 0.0 | 0.0 | 0.00 | 0.00 | 0.00 | 83 | 1014.0 |
| 20260905053630 | 68 | 169 | 0.0 | 0.0 | 0.00 | 0.00 | 0.00 | 83 | 1014.0 |
| 20260905053145 | 69 | 170 | 0.0 | 0.0 | 0.00 | 0.00 | 0.00 | 83 | 1014.0 |
| 20260905052629 | 69 | 170 | 0.0 | 0.0 | 0.00 | 0.00 | 0.00 | 83 | 1014.2 |
| 20260905052122 | 69 | 170 | 0.0 | 0.0 | 0.00 | 0.00 | 0.00 | 83 | 1014.3 |
| 20260905051636 | 68 | 264 | 0.0 | 0.0 | 0.00 | 0.00 | 0.00 | 83 | 1014.4 |
| 20260905051124 | 68 | 264 | 0.0 | 0.0 | 0.00 | 0.00 | 0.00 | 83 | 1014.2 |
| 20260905050619 | 68 | 131 | 0.0 | 0.0 | 0.00 | 0.00 | 0.00 | 83 | 1014.1 |
| 20260905050134 | 68 | 225 | 0.0 | 0.0 | 0.00 | 0.00 | 0.00 | 83 | 1014.2 |
| 20260905045624 | 68 | 225 | 0.0 | 0.0 | 0.00 | 0.00 | 0.00 | 83 | 1014.2 |
| 20260905045137 | 68 | 225 | 0.0 | 0.0 | 0.00 | 0.00 | 0.00 | 83 | 1014.3 |
| 20260905044624 | 68 | 225 | 0.0 | 0.0 | 0.00 | 0.00 | 0.00 | 83 | 1014.4 |
| 20260905044139 | 68 | 225 | 0.0 | 0.0 | 0.00 | 0.00 | 0.00 | 83 | 1014.4 |
| 20260905043625 | 68 | 225 | 0.0 | 0.0 | 0.00 | 0.00 | 0.00 | 83 | 1014.5 |
| 20260905043120 | 68 | 221 | 0.0 | 0.0 | 0.00 | 0.00 | 0.00 | 83 | 1014.4 |
| 20260905042635 | 68 | 220 | 0.0 | 0.0 | 0.00 | 0.00 | 0.00 | 83 | 1014.4 |
| 20260905042122 | 68 | 221 | 0.0 | 0.0 | 0.00 | 0.00 | 0.00 | 83 | 1014.5 |
| 20260905041636 | 68 | 221 | 0.0 | 0.0 | 0.00 | 0.00 | 0.00 | 83 | 1014.4 |
| 20260905041145 | 68 | 220 | 0.0 | 0.0 | 0.00 | 0.00 | 0.00 | 83 | 1014.4 |
| 20260905040616 | 68 | 220 | 0.0 | 0.0 | 0.00 | 0.01 | 0.00 | 83 | 1014.4 |
| 20260905040131 | 68 | 222 | 0.0 | 0.0 | 0.00 | 0.01 | 0.00 | 83 | 1014.4 |
| 20260905035620 | 68 | 222 | 0.0 | 0.0 | 0.00 | 0.01 | 0.00 | 83 | 1014.4 |
| 20260905035134 | 68 | 220 | 0.0 | 0.0 | 0.00 | 0.01 | 0.00 | 83 | 1014.2 |
| 20260905034621 | 68 | 220 | 0.0 | 0.0 | 0.00 | 0.01 | 0.00 | 83 | 1014.2 |
| 20260905034136 | 68 | 220 | 0.0 | 0.0 | 0.00 | 0.01 | 0.00 | 83 | 1014.2 |
| 20260905033621 | 68 | 220 | 0.0 | 0.0 | 0.00 | 0.01 | 0.00 | 83 | 1014.1 |
| 20260905033116 | 68 | 220 | 0.0 | 0.0 | 0.00 | 0.01 | 0.00 | 83 | 1014.1 |
| 20260905032627 | 68 | 220 | 0.0 | 0.0 | 0.00 | 0.01 | 0.00 | 83 | 1014.0 |
| 20260905032120 | 68 | 220 | 0.0 | 0.0 | 0.00 | 0.01 | 0.00 | 83 | 1014.0 |
| 20260905031653 | 68 | 220 | 0.0 | 0.0 | 0.00 | 0.01 | 0.00 | 83 | 1013.9 |
| 20260905031147 | 68 | 222 | 0.0 | 0.0 | 0.00 | 0.01 | 0.00 | 83 | 1013.9 |
| 20260905030618 | 68 | 220 | 0.0 | 0.0 | 0.00 | 0.09 | 0.00 | 83 | 1013.8 |
| 20260905030134 | 68 | 220 | 0.0 | 0.0 | 0.00 | 0.09 | 0.00 | 83 | 1013.8 |
| 20260905025622 | 68 | 219 | 0.0 | 0.0 | 0.00 | 0.09 | 0.00 | 83 | 1013.7 |
| 20260905025135 | 68 | 220 | 0.0 | 0.0 | 0.00 | 0.09 | 0.00 | 83 | 1013.6 |
| 20260905024623 | 68 | 220 | 0.0 | 0.0 | 0.00 | 0.09 | 0.00 | 83 | 1013.5 |
| 20260905024138 | 68 | 220 | 0.0 | 0.0 | 0.00 | 0.09 | 0.00 | 83 | 1013.5 |
| 20260905023623 | 68 | 220 | 0.0 | 0.0 | 0.00 | 0.09 | 0.00 | 83 | 1013.5 |
| 20260905023138 | 68 | 220 | 0.0 | 0.0 | 0.00 | 0.09 | 0.00 | 83 | 1013.6 |
| 20260905022647 | 68 | 218 | 0.0 | 0.0 | 0.00 | 0.09 | 0.00 | 83 | 1013.6 |
| 20260905022138 | 68 | 218 | 0.0 | 0.0 | 0.00 | 0.09 | 0.00 | 82 | 1013.6 |
| 20260905021646 | 68 | 218 | 0.0 | 0.0 | 0.00 | 0.09 | 0.00 | 82 | 1013.7 |
| 20260905021141 | 68 | 218 | 0.0 | 0.0 | 0.00 | 0.09 | 0.00 | 82 | 1013.7 |
| 20260905020626 | 68 | 219 | 0.0 | 0.0 | 0.00 | 0.15 | 0.00 | 82 | 1013.8 |
| 20260905020119 | 68 | 219 | 0.0 | 0.0 | 0.00 | 0.15 | 0.00 | 82 | 1013.7 |
| 20260905015634 | 68 | 219 | 0.0 | 0.0 | 0.00 | 0.15 | 0.00 | 82 | 1013.7 |
| 20260905015121 | 68 | 219 | 0.0 | 0.0 | 0.00 | 0.15 | 0.00 | 82 | 1013.7 |
| 20260905014630 | 68 | 218 | 0.0 | 0.0 | 0.00 | 0.15 | 0.00 | 82 | 1013.8 |
| 20260905014118 | 68 | 218 | 0.0 | 0.0 | 0.00 | 0.15 | 0.00 | 82 | 1013.7 |
| 20260905013630 | 68 | 218 | 0.0 | 0.0 | 0.00 | 0.15 | 0.00 | 82 | 1013.7 |
| 20260905013122 | 68 | 218 | 0.0 | 0.0 | 0.00 | 0.15 | 0.00 | 82 | 1013.7 |
| 20260905012617 | 68 | 218 | 0.0 | 0.0 | 0.00 | 0.15 | 0.00 | 82 | 1013.7 |
| 20260905012131 | 69 | 218 | 0.0 | 0.0 | 0.00 | 0.15 | 0.00 | 82 | 1013.8 |
| 20260905011625 | 69 | 218 | 0.0 | 0.0 | 0.00 | 0.15 | 0.00 | 82 | 1013.8 |
| 20260905011139 | 69 | 218 | 0.0 | 0.0 | 0.00 | 0.15 | 0.00 | 82 | 1013.8 |
| 20260905010643 | 69 | 218 | 0.0 | 0.0 | 0.00 | 0.24 | 0.00 | 82 | 1013.8 |
| 20260905010137 | 69 | 218 | 0.0 | 0.0 | 0.00 | 0.24 | 0.00 | 82 | 1013.8 |
| 20260905005625 | 70 | 218 | 0.0 | 0.0 | 0.00 | 0.24 | 0.00 | 81 | 1013.8 |
| 20260905005119 | 70 | 218 | 0.0 | 0.0 | 0.00 | 0.24 | 0.00 | 82 | 1013.7 |
| 20260905004634 | 70 | 218 | 0.0 | 0.0 | 0.00 | 0.24 | 0.00 | 81 | 1013.8 |
| 20260905004122 | 70 | 218 | 0.0 | 0.0 | 0.00 | 0.24 | 0.00 | 81 | 1013.7 |
| 20260905003635 | 71 | 218 | 0.0 | 0.0 | 0.00 | 0.24 | 0.00 | 81 | 1013.7 |
| 20260905003122 | 71 | 218 | 0.0 | 0.0 | 0.00 | 0.24 | 0.00 | 81 | 1013.7 |
| 20260905002658 | 71 | 218 | 0.0 | 0.0 | 0.00 | 0.24 | 0.00 | 81 | 1013.6 |
| 20260905002124 | 72 | 218 | 0.0 | 0.0 | 0.00 | 0.24 | 0.00 | 81 | 1013.6 |
| 20260905001619 | 72 | 218 | 0.0 | 0.0 | 0.00 | 0.24 | 0.00 | 81 | 1013.6 |
| 20260905001135 | 73 | 218 | 0.0 | 0.0 | 0.00 | 0.24 | 0.00 | 81 | 1013.5 |
| 20260905000619 | 73 | 218 | 0.0 | 0.0 | 0.00 | 0.38 | 0.00 | 81 | 1013.3 |
| 20260905000155 | 73 | 218 | 0.0 | 0.0 | 0.00 | 0.38 | 0.00 | 81 | 1013.2 |
| 20260904235638 | 74 | 218 | 0.0 | 0.0 | 0.00 | 0.38 | 0.00 | 80 | 1013.3 |
| 20260904235123 | 74 | 218 | 0.0 | 0.0 | 0.00 | 0.38 | 0.00 | 81 | 1013.3 |
| 20260904234618 | 75 | 218 | 0.0 | 0.0 | 0.00 | 0.38 | 0.00 | 80 | 1013.1 |
| 20260904234134 | 75 | 218 | 0.0 | 0.0 | 0.00 | 0.38 | 0.00 | 80 | 1013.1 |
| 20260904233629 | 75 | 218 | 0.0 | 0.0 | 0.00 | 0.38 | 0.00 | 80 | 1013.1 |